DELTA 1 DEB, 40768

Orbit data source: Space-Track

DELTA 1 DEB, 40768 is space debris in SSO originally from a launch on Thu, 29 Jul 1976 UTC launched from the Air Force Western Test Range (AFWTR). Debris objects in space refer to the collection of defunct objects orbiting the Earth. Examples of debris include non-operational satellites, rocket bodies, and fragments generated from explosions, collisions, or faulty payload assembly.

Loading next visibility...
Identifier
40768, 1976-077GM
Orbit
SSO
Country
Flag of USUS
Related business
Manufacturer
Unknown
Mission
Spacecraft
Bus & Motor
Unknown
Mass
Unknown
Launch date (UTC)
1976-07-29 (49 years ago)
Launch vehicle
Unknown
Launch site
Air Force Western Test Range (AFWTR)
Object type
Payload
Rocket body
Debris
Shape & HBR
Unknown shape, 0.1 m
Radar Cross Section
Small (<0.1 m²)

Expand to show TLE details & history
Last TLE update: 3 days ago

TLE from 3 days ago
0 DELTA 1 DEB
1 40768U 76077GM  25346.18831471  .00000672  00000-0  38900-2 0  9992
2 40768 101.3858 325.9030 0051955  44.7224 315.8028 12.64018394555429
Epoch: 2025-12-12T04:31Z
TLE epoch observation values (Epoch: 2025-12-12T04:31:10.390Z)
Latitude
-0.00004°
Longitude
176.97619°
Altitude
1,380.11 km
Speed
7.183 km/s
True Right ascension
21h 43m 36s
True Declination
0° 00' 00"
Sunlit
Object was in daylight at epoch
Visualization orbit readout
Latitude
Unknown
Longitude
Unknown
Altitude
Unknown
Speed
Unknown
Apparent Right ascension
Unknown
Apparent Declination
Unknown
Sunlit
N/A
Visualization observer readout
Local Sidereal Time
18:52:18
Azimuth
Unknown
Elevation
Unknown
Doppler factor
Unknown
Orbital elements
Apogee altitude
1,444.341 km
Perigee altitude
1,363.478 km
Semi-major axis
7,782.046 km
Eccentricity
0.0052
Inclination
101.3858°
RAAN
325.903°
Arg. of periapsis
44.7224°
True anomaly
315.38582°
Mean anomaly
315.8028°
Eccentric anomaly
315.5945°
Mean motion
3.16157 °/min
Orbital period
113.87 mins
BSTAR
0.00389
Loading maneuver chart data...
Computing Atmospheric mass density...
Loading historical data...
Loading historical data...
Loading historical data...
Loading historical data...
Loading historical data...
Loading historical data...
Loading historical data...

Documentation

Showing up to 5 results
|